Regional Weather Roundup
Issued by NWS

Home | Current Version | Previous Version | Text Only | Print | Product List | Glossary Off
Versions: 1 2 3 4 5 6 7 8 9 10 11 12 13 14 15 16 17 18 19 20 21 22 23 24 25 26 27 28 29 30 31 32 33 34 35 36 37 38 39 40 41 42 43 44 45 46 47 48 49 50

000
ASUS44 KMEG 201710
RWRTN
TENNESSEE HOURLY STATE WEATHER ROUNDUP
NATIONAL WEATHER SERVICE MEMPHIS TN
1200 PM CDT WED AUG 20 2014

TNZ002-004-019-021-049-052-054-088>092-201800-
WEST TENNESSEE

CITY           SKY/WX    TMP DP  RH WIND       PRES   REMARKS
MEMPHIS INTL   MOSUNNY   91  72  53 SW8       30.03F HX  98
NWS MEMPHIS      N/A     91 N/A N/A MISG        N/A
JACKSON        SUNNY     90  75  61 W10       30.02S HX 100
DYERSBURG      SUNNY     90  70  51 W10       30.01S HX  95
UNION CITY     SUNNY     88  79  74 W6        29.99S HX 102
PARIS          SUNNY     88  75  66 W9        30.01R HX  97
HUNTINGDON     SUNNY     88  77  69 SW6       30.00S HX 100
LEXINGTON      MOSUNNY   91  77  62 W8        30.01S HX 105
SAVANNAH       SUNNY     90  77  66 W8        30.04S HX 102
$$

TNZ008-025-027-028-033-062-065-066-201800-
NORTH MIDDLE TENNESSEE

CITY           SKY/WX    TMP DP  RH WIND       PRES   REMARKS
NASHVILLE      MOSUNNY   93  75  55 W8        29.99F HX 104
PORTLAND       MOSUNNY   90  75  62 SW3       29.99  HX 100
CLARKSVILLE    MOSUNNY   91  75  59 W9        29.98S HX 101
SMYRNA         MOSUNNY   94  76  55 VRB6      29.99F HX 106
MURFREESBORO   SUNNY     91  75  59 SW9       29.99F HX 101
COOKEVILLE     MOSUNNY   86  79  79 SW8       30.04S HX  99
GALLATIN       MOSUNNY   92  79  65 SW5       30.00S HX 108
CROSSVILLE     MOSUNNY   83  72  69 W8        30.10S
$$

TNZ061-075-076-078-094-096-097-201800-
SOUTH MIDDLE TENNESSEE

CITY           SKY/WX    TMP DP  RH WIND       PRES   REMARKS
LEWISBURG      MOSUNNY   91  76  61 SW10      30.02S HX 102
FAYETTEVILLE   MOSUNNY   88  75  66 SW9       30.05F HX  97
TULLAHOMA      MOSUNNY   88  75  66 SW7       30.07S HX  97
WINCHESTER     MOSUNNY   88  77  70 VRB7      30.06S HX 100
MCMINNVILLE    SUNNY     88  81  79 SW7       30.04S HX 105
COLUMBIA       MOSUNNY   91  79  66 W8        30.01F HX 107
SHELBYVILLE    MOSUNNY   91  79  66 SW8       30.04S HX 107
$$

TNZ017-018-042-046-047-201800-
NORTHEAST TENNESSEE

CITY           SKY/WX    TMP DP  RH WIND       PRES   REMARKS
TRI CITIES     CLOUDY    75  63  66 VRB5      30.08S
ELIZABETHTON   SUNNY     73  63  68 CALM      30.09S
$$

TNZ012-013-036-069-073-074-201800-
CENTRAL EAST TENNESSEE

CITY           SKY/WX    TMP DP  RH WIND       PRES   REMARKS
KNOXVILLE      PTSUNNY   84  75  74 S7        30.04S HX  92
OAK RIDGE      MOSUNNY   86  73  65 W5        30.05S HX  93
GATLINBURG     MOSUNNY   90  70  51 VRB6      30.04S HX  95
MORRISTOWN       N/A     84  72  65 VRB3      30.06F
$$

TNZ083-085-099-201800-
SOUTHEAST TENNESSEE

CITY           SKY/WX    TMP DP  RH WIND       PRES   REMARKS
CHATTANOOGA    MOSUNNY   88  74  63 VRB3      30.05S HX  96
$$

SKY/WX REPORTED AS FAIR MEANS FEW OR NO CLOUDS BELOW
12 THOUSAND FEET.



USA.gov is the U.S. government's official web portal to all federal, state and local government web resources and services.